Location: Castelbiague
(43.0361°N, 0.9246°E)
Time: 13:40:34
(UTC+00:00)

ATLAS 3B R/B - Pass Details

Date: 17 June 2021
Orbit: 1003 x 1191 km, 63.8° (Epoch: 21 July)

Event Time Altitude Azimuth Distance (km) Brightness Sun altitude
Exits shadow 20:29:19 - 168° (SSE) 3,444 4.9 -8.1°
Reaches altitude 10° 20:31:37 10° 157° (SSE) 2,771 4.3 -8.5°
Maximum altitude 20:36:27 22° 109° (ESE) 2,033 3.7 -9.1°
Drops below altitude 10° 20:41:22 10° 60° (ENE) 2,834 4.8 -9.7°
Sets 20:44:36 0° 47° (NE) 3,818 5.6 -10.1°
